| time (UTC) | temp C | wind direction | speed KPH | gust KPH | rain 1hr cm | rain 24hr cm | rain mn cm | humidity % | barometer mb |
| 20260503005222 | 10 | 270 | 4.8 | 9.7 | 0.00 | 0.00 | 0.00 | 48 | 1021.5 |
| 20260503004243 | 10 | 270 | 4.8 | 6.4 | 0.00 | 0.00 | 0.00 | 48 | |
| 20260503004204 | 10 | 270 | 4.8 | 6.4 | 0.00 | 0.00 | 0.00 | 48 | 1021.6 |
| 20260503003702 | 10 | 270 | 4.8 | 8.0 | 0.00 | 0.00 | 0.00 | 47 | 1021.5 |
| 20260503003655 | 10 | 270 | 4.8 | 8.0 | 0.00 | 0.00 | 0.00 | 47 | 1021.5 |
| 20260503003147 | 10 | 270 | 4.8 | 8.0 | 0.00 | 0.00 | 0.00 | 47 | 1021.7 |
| 20260503002236 | 10 | 270 | 4.8 | 6.4 | 0.00 | 0.00 | 0.00 | 47 | |
| 20260503002129 | 10 | 270 | 4.8 | 6.4 | 0.00 | 0.00 | 0.00 | 47 | 1021.7 |
| 20260503001627 | 10 | 270 | 3.2 | 6.4 | 0.00 | 0.00 | 0.00 | 47 | 1021.8 |
| 20260503001620 | 10 | 270 | 3.2 | 6.4 | 0.00 | 0.00 | 0.00 | 47 | 1021.8 |
| 20260503001117 | 10 | 270 | 4.8 | 6.4 | 0.00 | 0.00 | 0.00 | 47 | 1021.8 |
| 20260503001111 | 10 | 270 | 4.8 | 6.4 | 0.00 | 0.00 | 0.00 | 47 | 1021.8 |
| 20260503000602 | 10 | 270 | 4.8 | 6.4 | 0.00 | 0.00 | 0.00 | 47 | 1021.8 |
| 20260503000053 | 10 | 270 | 4.8 | 8.0 | 0.00 | 0.00 | 0.00 | 47 | 1021.9 |
| 20260502235544 | 10 | 270 | 4.8 | 6.4 | 0.00 | 0.00 | 0.00 | 47 | 1021.9 |
| 20260502235042 | 10 | 270 | 4.8 | 8.0 | 0.00 | 0.00 | 0.00 | 47 | 1021.9 |
| 20260502235035 | 10 | 270 | 4.8 | 8.0 | 0.00 | 0.00 | 0.00 | 47 | 1021.9 |
| 20260502234527 | 10 | 270 | 4.8 | 6.4 | 0.00 | 0.00 | 0.00 | 47 | 1021.9 |
| 20260502234018 | 10 | 270 | 4.8 | 8.0 | 0.00 | 0.00 | 0.00 | 47 | 1021.9 |
| 20260502233509 | 10 | 270 | 4.8 | 8.0 | 0.00 | 0.00 | 0.00 | 47 | 1022.0 |
| 20260502233000 | 10 | 270 | 4.8 | 6.4 | 0.00 | 0.00 | 0.00 | 47 | 1022.0 |
| 20260502232451 | 10 | 270 | 4.8 | 6.4 | 0.00 | 0.00 | 0.00 | 47 | 1022.1 |
| 20260502231433 | 10 | 270 | 4.8 | 8.0 | 0.00 | 0.00 | 0.00 | 46 | 1022.1 |
| 20260502230924 | 10 | 270 | 4.8 | 8.0 | 0.00 | 0.00 | 0.00 | 46 | 1022.1 |
| 20260502230415 | 10 | 270 | 4.8 | 8.0 | 0.00 | 0.00 | 0.00 | 46 | 1022.1 |
| 20260502225358 | 10 | 270 | 4.8 | 8.0 | 0.00 | 0.00 | 0.00 | 46 | 1022.1 |
| 20260502224340 | 10 | 270 | 4.8 | 6.4 | 0.00 | 0.00 | 0.00 | 46 | 1022.3 |
| 20260502223831 | 10 | 270 | 4.8 | 9.7 | 0.00 | 0.00 | 0.00 | 46 | 1022.3 |
| 20260502223322 | 11 | 270 | 4.8 | 8.0 | 0.00 | 0.00 | 0.00 | 46 | 1022.3 |
| 20260502222820 | 11 | 270 | 4.8 | 6.4 | 0.00 | 0.00 | 0.00 | 46 | 1022.4 |
| 20260502222813 | 11 | 270 | 4.8 | 6.4 | 0.00 | 0.00 | 0.00 | 46 | 1022.4 |
| 20260502222311 | 11 | 270 | 4.8 | 9.7 | 0.00 | 0.00 | 0.00 | 46 | 1022.4 |
| 20260502222305 | 11 | 270 | 4.8 | 9.7 | 0.00 | 0.00 | 0.00 | 46 | 1022.4 |
| 20260502221755 | 11 | 270 | 4.8 | 6.4 | 0.00 | 0.00 | 0.00 | 47 | 1022.4 |
| 20260502221253 | 11 | 270 | 4.8 | 6.4 | 0.00 | 0.00 | 0.00 | 47 | 1022.4 |
| 20260502221246 | 11 | 270 | 4.8 | 6.4 | 0.00 | 0.00 | 0.00 | 47 | 1022.4 |
| 20260502220737 | 11 | 270 | 4.8 | 6.4 | 0.00 | 0.00 | 0.00 | 47 | 1022.4 |
| 20260502220236 | -17 | 270 | 4.8 | 8.0 | 0.00 | 0.00 | 0.00 | ||
| 20260502220228 | 11 | 270 | 4.8 | 8.0 | 0.00 | 0.00 | 0.00 | 47 | 1022.4 |
| 20260502215726 | 11 | 270 | 4.8 | 6.4 | 0.00 | 0.00 | 0.00 | 47 | 1022.4 |
| 20260502215719 | 11 | 270 | 4.8 | 6.4 | 0.00 | 0.00 | 0.00 | 47 | 1022.4 |
| 20260502215211 | 11 | 270 | 4.8 | 8.0 | 0.00 | 0.00 | 0.00 | 47 | 1022.4 |
| 20260502214702 | 11 | 270 | 4.8 | 9.7 | 0.00 | 0.00 | 0.00 | 47 | 1022.4 |
| 20260502214200 | 11 | 270 | 6.4 | 9.7 | 0.00 | 0.00 | 0.00 | 47 | 1022.5 |
| 20260502214153 | 11 | 270 | 6.4 | 9.7 | 0.00 | 0.00 | 0.00 | 47 | 1022.5 |
| 20260502213644 | 11 | 270 | 4.8 | 11.3 | 0.00 | 0.00 | 0.00 | 47 | 1022.3 |
| 20260502212626 | 11 | 270 | 4.8 | 8.0 | 0.00 | 0.00 | 0.00 | 47 | 1022.5 |
| 20260502212117 | 11 | 270 | 4.8 | 8.0 | 0.00 | 0.00 | 0.00 | 47 | 1022.5 |
| 20260502211608 | 11 | 270 | 4.8 | 9.7 | 0.00 | 0.00 | 0.00 | 47 | 1022.5 |
| 20260502211059 | 11 | 270 | 6.4 | 8.0 | 0.00 | 0.00 | 0.00 | 47 | 1022.6 |
| 20260502210557 | 11 | 270 | 4.8 | 8.0 | 0.00 | 0.00 | 0.00 | 47 | 1022.6 |
| 20260502210550 | 11 | 270 | 4.8 | 8.0 | 0.00 | 0.00 | 0.00 | 47 | 1022.6 |
| 20260502210047 | 11 | 270 | 4.8 | 9.7 | 0.00 | 0.00 | 0.00 | 47 | 1022.7 |
| 20260502210041 | 11 | 270 | 4.8 | 9.7 | 0.00 | 0.00 | 0.00 | 47 | 1022.7 |
| 20260502205538 | 11 | 270 | 4.8 | 8.0 | 0.00 | 0.00 | 0.00 | 47 | 1022.7 |
| 20260502205532 | 11 | 270 | 4.8 | 8.0 | 0.00 | 0.00 | 0.00 | 47 | 1022.7 |
| 20260502205023 | 11 | 270 | 4.8 | 8.0 | 0.00 | 0.00 | 0.00 | 47 | 1022.8 |
| 20260502204521 | 11 | 270 | 4.8 | 6.4 | 0.00 | 0.00 | 0.00 | 47 | 1022.8 |
| 20260502204514 | 11 | 270 | 4.8 | 6.4 | 0.00 | 0.00 | 0.00 | 47 | 1022.8 |
| 20260502204005 | 11 | 270 | 4.8 | 6.4 | 0.00 | 0.00 | 0.00 | 47 | 1022.8 |
| 20260502203456 | 11 | 270 | 4.8 | 8.0 | 0.00 | 0.00 | 0.00 | 47 | 1022.9 |
| 20260502202438 | 11 | 270 | 4.8 | 6.4 | 0.00 | 0.00 | 0.00 | 47 | 1023.0 |
| 20260502201421 | 11 | 270 | 4.8 | 8.0 | 0.00 | 0.00 | 0.00 | 47 | 1023.1 |
| 20260502200912 | 11 | 270 | 3.2 | 4.8 | 0.00 | 0.00 | 0.00 | 47 | 1023.1 |
| 20260502200403 | 11 | 270 | 3.2 | 6.4 | 0.00 | 0.00 | 0.00 | 47 | 1023.1 |
| 20260502195854 | 11 | 270 | 3.2 | 4.8 | 0.00 | 0.00 | 0.00 | 47 | 1023.2 |
| 20260502195345 | 11 | 270 | 3.2 | 4.8 | 0.00 | 0.00 | 0.00 | 48 | 1023.2 |
| 20260502194842 | 10 | 270 | 3.2 | 4.8 | 0.00 | 0.00 | 0.00 | 48 | 1023.2 |
| 20260502194836 | 10 | 270 | 3.2 | 4.8 | 0.00 | 0.00 | 0.00 | 48 | 1023.2 |
| 20260502193832 | 10 | 270 | 1.6 | 3.2 | 0.00 | 0.00 | 0.00 | 48 | 1023.2 |
| 20260502193818 | 10 | 270 | 1.6 | 3.2 | 0.00 | 0.00 | 0.00 | 48 | 1023.2 |
| 20260502193309 | 10 | 270 | 1.6 | 3.2 | 0.00 | 0.00 | 0.00 | 48 | 1023.3 |
| 20260502192800 | 11 | 270 | 1.6 | 3.2 | 0.00 | 0.00 | 0.00 | 47 | 1023.4 |
| 20260502192258 | 11 | 270 | 1.6 | 3.2 | 0.00 | 0.00 | 0.00 | 47 | 102.3 |
| 20260502192251 | 11 | 270 | 1.6 | 3.2 | 0.00 | 0.00 | 0.00 | 47 | 1023.4 |
| 20260502191749 | 11 | 270 | 1.6 | 1.6 | 0.00 | 0.00 | 0.00 | 47 | 1023.3 |
| 20260502191742 | 11 | 270 | 1.6 | 1.6 | 0.00 | 0.00 | 0.00 | 47 | 1023.3 |
| 20260502191233 | 11 | 270 | 1.6 | 1.6 | 0.00 | 0.00 | 0.00 | 47 | 1023.3 |
| 20260502190725 | 11 | 270 | 1.6 | 1.6 | 0.00 | 0.00 | 0.00 | 47 | 1023.3 |
| 20260502190222 | 11 | 270 | 1.6 | 3.2 | 0.00 | 0.00 | 0.00 | 47 | 1023.3 |
| 20260502190216 | 11 | 270 | 1.6 | 3.2 | 0.00 | 0.00 | 0.00 | 47 | 1023.3 |
| 20260502185707 | 11 | 270 | 1.6 | 3.2 | 0.00 | 0.00 | 0.00 | 47 | 1023.3 |
| 20260502185204 | 11 | 270 | 1.6 | 1.6 | 0.00 | 0.00 | 0.00 | 47 | 1023.3 |
| 20260502185158 | 11 | 270 | 1.6 | 1.6 | 0.00 | 0.00 | 0.00 | 47 | 1023.3 |
| 20260502184140 | 11 | 270 | 0.0 | 1.6 | 0.00 | 0.00 | 0.00 | 47 | 1023.2 |
| 20260502183631 | 11 | 270 | 0.0 | 1.6 | 0.00 | 0.00 | 0.00 | 47 | 1023.3 |
| 20260502183122 | 11 | 270 | 1.6 | 1.6 | 0.00 | 0.00 | 0.00 | 47 | 1023.3 |
| 20260502182613 | 11 | 270 | 1.6 | 1.6 | 0.00 | 0.00 | 0.00 | 47 | 1023.2 |
| 20260502180537 | 12 | 270 | 0.0 | 1.6 | 0.00 | 0.00 | 0.00 | 47 | 1023.1 |
| 20260502170348 | 15 | 270 | 1.6 | 3.2 | 0.00 | 0.00 | 0.00 | 45 | 1023.3 |
| 20260502164311 | 16 | 270 | 1.6 | 3.2 | 0.00 | 0.00 | 0.00 | 44 | 1023.5 |
| 20260502163802 | 16 | 270 | 0.0 | 1.6 | 0.00 | 0.00 | 0.00 | 44 | 1023.5 |
| 20260502163253 | 16 | 270 | 1.6 | 3.2 | 0.00 | 0.00 | 0.00 | 44 | 1023.5 |
| 20260502162744 | 16 | 270 | 1.6 | 4.8 | 0.00 | 0.00 | 0.00 | 44 | 1023.5 |
| 20260502162234 | 16 | 270 | 0.0 | 1.6 | 0.00 | 0.00 | 0.00 | 44 | 1023.6 |
| 20260502161725 | 16 | 270 | 1.6 | 3.2 | 0.00 | 0.00 | 0.00 | 44 | 1023.7 |
| 20260502160713 | 16 | 270 | 1.6 | 3.2 | 0.00 | 0.00 | 0.00 | 44 | 1023.8 |
| 20260502160707 | 16 | 270 | 1.6 | 3.2 | 0.00 | 0.00 | 0.00 | 44 | 1023.8 |
| 20260502160158 | 16 | 270 | 1.6 | 4.8 | 0.00 | 0.00 | 0.00 | 44 | 1023.9 |
| 20260502152043 | 17 | 270 | 1.6 | 4.8 | 0.00 | 0.00 | 0.00 | 43 | 1024.2 |
| 20260502151534 | 17 | 270 | 1.6 | 4.8 | 0.00 | 0.00 | 0.00 | 43 | 1024.3 |
| 20260502150515 | 17 | 270 | 1.6 | 3.2 | 0.00 | 0.00 | 0.00 | 43 | 1024.3 |
| 20260502130644 | 20 | 270 | 1.6 | 4.8 | 0.00 | 0.00 | 0.00 | 42 | 1025.2 |
| 20260502130638 | 20 | 270 | 1.6 | 4.8 | 0.00 | 0.00 | 0.00 | 42 | 1025.2 |
| 20260502130135 | 20 | 270 | 3.2 | 4.8 | 0.00 | 0.00 | 0.00 | 42 | 1025.2 |
| 20260502130132 | 20 | 270 | 3.2 | 4.8 | 0.00 | 0.00 | 0.00 | 42 | 1025.2 |
| 20260502130128 | 20 | 270 | 3.2 | 4.8 | 0.00 | 0.00 | 0.00 | 42 | 1025.2 |
| 20260502123547 | 20 | 270 | 1.6 | 4.8 | 0.00 | 0.00 | 0.00 | 43 | 1025.5 |
| 20260502123540 | 20 | 270 | 1.6 | 4.8 | 0.00 | 0.00 | 0.00 | 43 | 1025.5 |
| 20260502123031 | 20 | 270 | 1.6 | 6.4 | 0.00 | 0.00 | 0.00 | 43 | 1025.5 |
| 20260502122521 | 20 | 270 | 1.6 | 3.2 | 0.00 | 0.00 | 0.00 | 43 | 1025.5 |
| 20260502122018 | 20 | 270 | 1.6 | 6.4 | 0.00 | 0.00 | 0.00 | 43 | 1025.6 |
| 20260502122012 | 20 | 270 | 1.6 | 6.4 | 0.00 | 0.00 | 0.00 | 43 | 1025.6 |
| 20260502121509 | 20 | 270 | 1.6 | 1.6 | 0.00 | 0.00 | 0.00 | 43 | 1025.7 |
| 20260502121502 | 20 | 270 | 1.6 | 1.6 | 0.00 | 0.00 | 0.00 | 43 | 1025.7 |
| 20260502120443 | 20 | 270 | 1.6 | 1.6 | 0.00 | 0.00 | 0.00 | 43 | 1025.8 |
| 20260502115425 | 20 | 270 | 3.2 | 4.8 | 0.00 | 0.00 | 0.00 | 43 | 1025.9 |
| 20260502114921 | 20 | 270 | 1.6 | 4.8 | 0.00 | 0.00 | 0.00 | 43 | 1026.0 |
| 20260502114915 | 20 | 270 | 1.6 | 4.8 | 0.00 | 0.00 | 0.00 | 43 | 1026.0 |
| 20260502113902 | 20 | 270 | 3.2 | 4.8 | 0.00 | 0.00 | 0.00 | 44 | 1026.1 |
| 20260502113856 | 20 | 270 | 3.2 | 4.8 | 0.00 | 0.00 | 0.00 | 44 | 1026.1 |
| 20260502113353 | 19 | 270 | 3.2 | 4.8 | 0.00 | 0.00 | 0.00 | 44 | 1026.1 |
| 20260502113346 | 19 | 270 | 3.2 | 4.8 | 0.00 | 0.00 | 0.00 | 44 | 1026.1 |
| 20260502112327 | 19 | 270 | 1.6 | 3.2 | 0.00 | 0.00 | 0.00 | 44 | 1026.2 |
| 20260502111818 | 19 | 270 | 1.6 | 3.2 | 0.00 | 0.00 | 0.00 | 44 | 1026.2 |
| 20260502110250 | 18 | 270 | 3.2 | 3.2 | 0.00 | 0.00 | 0.00 | 44 | 1026.4 |
| 20260502105740 | 18 | 270 | 1.6 | 4.8 | 0.00 | 0.00 | 0.00 | 44 | 1026.4 |
| 20260502104212 | 18 | 270 | 1.6 | 3.2 | 0.00 | 0.00 | 0.00 | 45 | 1026.5 |
| 20260502103709 | 18 | 270 | 1.6 | 3.2 | 0.00 | 0.00 | 0.00 | 45 | 1026.6 |
| 20260502103703 | 18 | 270 | 1.6 | 3.2 | 0.00 | 0.00 | 0.00 | 45 | 1026.6 |
| 20260502103153 | 18 | 270 | 1.6 | 3.2 | 0.00 | 0.00 | 0.00 | 45 | 1026.6 |
| 20260502102644 | 18 | 270 | 1.6 | 3.2 | 0.00 | 0.00 | 0.00 | 45 | 1026.7 |
| 20260502101631 | 18 | 270 | 1.6 | 3.2 | 0.00 | 0.00 | 0.00 | 45 | 1026.7 |
| 20260502101625 | 18 | 270 | 1.6 | 3.2 | 0.00 | 0.00 | 0.00 | 45 | 1026.7 |
| 20260502101116 | 18 | 270 | 1.6 | 3.2 | 0.00 | 0.00 | 0.00 | 45 | 1026.8 |
| 20260502100606 | 18 | 270 | 1.6 | 4.8 | 0.00 | 0.00 | 0.00 | 45 | 1026.9 |
| 20260502091439 | 17 | 270 | 1.6 | 3.2 | 0.00 | 0.00 | 0.00 | 46 | 1027.3 |
| 20260502091433 | 17 | 270 | 1.6 | 3.2 | 0.00 | 0.00 | 0.00 | 46 | 1027.3 |
| 20260502090930 | 17 | 270 | 1.6 | 6.4 | 0.00 | 0.00 | 0.00 | 47 | 1027.3 |
| 20260502090923 | 17 | 270 | 1.6 | 6.4 | 0.00 | 0.00 | 0.00 | 47 | 1027.3 |
| 20260502090421 | 17 | 270 | 1.6 | 3.2 | 0.00 | 0.00 | 0.00 | 47 | 1027.3 |
| 20260502090414 | 17 | 270 | 1.6 | 3.2 | 0.00 | 0.00 | 0.00 | 47 | 1027.3 |
| 20260502071122 | 13 | 270 | 3.2 | 3.2 | 0.00 | 0.00 | 0.00 | 51 | 1027.6 |
| 20260502071052 | 13 | 270 | 3.2 | 3.2 | 0.00 | 0.00 | 0.00 | 51 | 1027.6 |
| 20260502070034 | 13 | 270 | 1.6 | 3.2 | 0.00 | 0.00 | 0.00 | 52 | 1027.6 |
| 20260502064507 | 12 | 270 | 3.2 | 8.0 | 0.00 | 0.00 | 0.00 | 52 | 1027.4 |
| 20260502063958 | 12 | 270 | 3.2 | 6.4 | 0.00 | 0.00 | 0.00 | 53 | 1027.5 |
| 20260502063449 | 12 | 270 | 3.2 | 6.4 | 0.00 | 0.00 | 0.00 | 53 | 1027.5 |
| 20260502062940 | 11 | 270 | 1.6 | 4.8 | 0.00 | 0.00 | 0.00 | 53 | 1027.5 |
| 20260502061922 | 11 | 270 | 3.2 | 6.4 | 0.00 | 0.00 | 0.00 | 53 | 1027.5 |
| 20260502061413 | 11 | 270 | 3.2 | 4.8 | 0.00 | 0.00 | 0.00 | 53 | 1027.5 |
| 20260502060904 | 11 | 270 | 1.6 | 4.8 | 0.00 | 0.00 | 0.00 | 53 | 1027.5 |
| 20260502055846 | 10 | 270 | 3.2 | 4.8 | 0.00 | 0.00 | 0.00 | 53 | 1027.5 |
| 20260502055337 | 10 | 270 | 3.2 | 4.8 | 0.00 | 0.00 | 0.00 | 54 | 1027.5 |
| 20260502054828 | 10 | 270 | 1.6 | 3.2 | 0.00 | 0.00 | 0.00 | 54 | 1027.4 |
| 20260502053850 | 10 | 270 | 3.2 | 4.8 | 0.00 | 0.00 | 0.00 | 54 | 1027.4 |
| 20260502053810 | 10 | 270 | 3.2 | 4.8 | 0.00 | 0.00 | 0.00 | 54 | 1027.4 |
| 20260502053301 | 10 | 270 | 3.2 | 6.4 | 0.00 | 0.00 | 0.00 | 54 | 1027.4 |
| 20260502052753 | 10 | 270 | 3.2 | 4.8 | 0.00 | 0.00 | 0.00 | 54 | 1027.4 |
| 20260502052244 | 9 | 270 | 1.6 | 3.2 | 0.00 | 0.00 | 0.00 | 54 | 1027.4 |
| 20260502051226 | 9 | 270 | 1.6 | 3.2 | 0.00 | 0.00 | 0.00 | 55 | 1027.4 |
| 20260502050717 | 8 | 270 | 3.2 | 3.2 | 0.00 | 0.00 | 0.00 | 55 | 1027.4 |
| 20260502050209 | 8 | 270 | 3.2 | 4.8 | 0.00 | 0.00 | 0.00 | 55 | 1027.3 |
| 20260502045700 | 8 | 270 | 1.6 | 3.2 | 0.00 | 0.00 | 0.00 | 55 | 1027.3 |
| 20260502045238 | 8 | 270 | 1.6 | 4.8 | 0.00 | 0.00 | 0.00 | 55 | 1027.3 |
| 20260502045151 | 8 | 270 | 1.6 | 4.8 | 0.00 | 0.00 | 0.00 | 55 | 1027.3 |
| 20260502044642 | 8 | 270 | 1.6 | 3.2 | 0.00 | 0.00 | 0.00 | 55 | 1027.3 |
| 20260502043624 | 7 | 270 | 1.6 | 3.2 | 0.00 | 0.00 | 0.00 | 56 | 1027.3 |
| 20260502043116 | 7 | 270 | 1.6 | 3.2 | 0.00 | 0.00 | 0.00 | 56 | 1027.3 |
| 20260502042734 | 7 | 270 | 1.6 | 3.2 | 0.00 | 0.00 | 0.00 | 56 | 1027.3 |
| 20260502042607 | 7 | 270 | 1.6 | 3.2 | 0.00 | 0.00 | 0.00 | 56 | 1027.3 |
| 20260502042058 | 6 | 270 | 1.6 | 3.2 | 0.00 | 0.00 | 0.00 | 56 | 1027.3 |
| 20260502041040 | 6 | 270 | 1.6 | 3.2 | 0.00 | 0.00 | 0.00 | 56 | 1027.3 |
| 20260502040628 | 6 | 270 | 1.6 | 3.2 | 0.00 | 0.00 | 0.00 | 56 | 1027.3 |
| 20260502040532 | 6 | 270 | 1.6 | 3.2 | 0.00 | 0.00 | 0.00 | 56 | 1027.3 |
| 20260502040023 | 5 | 270 | 1.6 | 1.6 | 0.00 | 0.00 | 0.00 | 56 | 1027.3 |
| 20260502035514 | 5 | 270 | 0.0 | 1.6 | 0.00 | 0.00 | 0.00 | 56 | 1027.4 |
| 20260502035014 | 5 | 270 | 1.6 | 3.2 | 0.00 | 0.00 | 0.00 | 56 | 1027.4 |
| 20260502035006 | 5 | 270 | 1.6 | 3.2 | 0.00 | 0.00 | 0.00 | 56 | 1027.4 |
| 20260502034457 | 5 | 270 | 1.6 | 1.6 | 0.00 | 0.00 | 0.00 | 55 | 1027.3 |
| 20260502033958 | 6 | 270 | 1.6 | 1.6 | 0.00 | 0.00 | 0.00 | 55 | 1027.3 |
| 20260502033948 | 6 | 270 | 1.6 | 1.6 | 0.00 | 0.00 | 0.00 | 55 | 1027.3 |
| 20260502033451 | 6 | 270 | 1.6 | 3.2 | 0.00 | 0.00 | 0.00 | 55 | 1027.4 |
| 20260502033439 | 6 | 270 | 1.6 | 3.2 | 0.00 | 0.00 | 0.00 | 55 | 1027.4 |
| 20260502032931 | 6 | 270 | 1.6 | 3.2 | 0.00 | 0.00 | 0.00 | 55 | 1027.4 |
| 20260502032422 | 6 | 270 | 1.6 | 1.6 | 0.00 | 0.00 | 0.00 | 55 | 1027.4 |
| 20260502031913 | 6 | 270 | 1.6 | 3.2 | 0.00 | 0.00 | 0.00 | 55 | 1027.4 |
| 20260502031404 | 6 | 270 | 1.6 | 3.2 | 0.00 | 0.00 | 0.00 | 55 | 1027.5 |
| 20260502030856 | 6 | 270 | 1.6 | 3.2 | 0.00 | 0.00 | 0.00 | 55 | 1027.4 |
| 20260502030347 | 6 | 270 | 1.6 | 1.6 | 0.00 | 0.00 | 0.00 | 55 | 1027.5 |
| 20260502025838 | 6 | 270 | 1.6 | 1.6 | 0.00 | 0.00 | 0.00 | 55 | 1027.5 |
| 20260502025329 | 6 | 270 | 1.6 | 3.2 | 0.00 | 0.00 | 0.00 | 55 | 1027.5 |
| 20260502024821 | 6 | 270 | 1.6 | 1.6 | 0.00 | 0.00 | 0.00 | 55 | 1027.6 |
| 20260502024312 | 6 | 270 | 1.6 | 3.2 | 0.00 | 0.00 | 0.00 | 55 | 1027.6 |
| 20260502023803 | 7 | 270 | 1.6 | 3.2 | 0.00 | 0.00 | 0.00 | 55 | 1027.7 |
| 20260502023254 | 7 | 270 | 1.6 | 1.6 | 0.00 | 0.00 | 0.00 | 55 | 1027.7 |
| 20260502022746 | 7 | 270 | 1.6 | 1.6 | 0.00 | 0.00 | 0.00 | 55 | 1027.7 |
| 20260502022237 | 7 | 270 | 1.6 | 1.6 | 0.00 | 0.00 | 0.00 | 55 | 1027.7 |
| 20260502021728 | 7 | 270 | 1.6 | 1.6 | 0.00 | 0.00 | 0.00 | 54 | 1027.7 |
| 20260502020710 | 7 | 270 | 1.6 | 3.2 | 0.00 | 0.00 | 0.00 | 54 | 1027.6 |
| 20260502020202 | 7 | 270 | 1.6 | 3.2 | 0.00 | 0.00 | 0.00 | 54 | 1027.7 |
| 20260502015653 | 7 | 270 | 1.6 | 3.2 | 0.00 | 0.00 | 0.00 | 54 | 1027.6 |
| 20260502015144 | 7 | 270 | 1.6 | 3.2 | 0.00 | 0.00 | 0.00 | 54 | 1027.6 |
| 20260502014127 | 7 | 270 | 1.6 | 3.2 | 0.00 | 0.00 | 0.00 | 54 | 1027.6 |
| 20260502013618 | 7 | 270 | 1.6 | 3.2 | 0.00 | 0.00 | 0.00 | 54 | 1027.6 |
| 20260502012600 | 7 | 270 | 1.6 | 3.2 | 0.00 | 0.00 | 0.00 | 54 | 1027.7 |
| 20260502012051 | 7 | 270 | 1.6 | 3.2 | 0.00 | 0.00 | 0.00 | 54 | 1027.7 |
| 20260502011543 | 7 | 270 | 1.6 | 3.2 | 0.00 | 0.00 | 0.00 | 54 | 1027.8 |
| 20260502011034 | 7 | 270 | 1.6 | 3.2 | 0.00 | 0.00 | 0.00 | 54 | 1027.8 |
| 20260502010016 | 7 | 270 | 1.6 | 3.2 | 0.00 | 0.00 | 0.00 | 54 | 1027.9 |
| 20260502005508 | 7 | 270 | 1.6 | 3.2 | 0.00 | 0.00 | 0.00 | 54 | 1028.0 |